Tracking 19245 objects as of 17-Aug-2018
HD Live streaming from Space Station
objects crossing your sky now

FENGYUN 1C DEB

Track FENGYUN 1C DEB now!
10-day predictions


NORAD ID: 39537
Int'l Code: 1999-025EWE
Perigee: 848.8 km
Apogee: 1,133.8 km
Inclination: 99.1 °
Period: 104.8 minutes
Semi major axis: 7362 km
RCS: Unknown
Launch date: May 10, 1999
Source: People's Republic of China (PRC)
Launch site: Taiyaun Space Center, China (TSC)

Note: This is SATELLITE DEBRIS
aabbcc
Your satellite tracking list
Your tracking list is empty




NASA's NSSDC Master Catalog

Two Line Element Set (TLE):
1 39537U 99025EWE 18226.83543134  .00000501  00000-0  50391-3 0  9999
2 39537  99.1254  89.3989 0193553 244.6115 113.4887 13.74295957262121
Source of the keplerian elements: AFSPC